SAS4577 ENBO-ENVA

Flight info

Callsign SAS4577
Flight time 0h 49m
Altitude 32000
Route DISMU DCT NUPGO
Aircraft A20N/M-SDE2E3FGHIRWXY/LB1

Departure

Time 2026-04-23 14:54
Airport Bodø Airport (ENBO)

Arrival

Time 2026-04-23 15:44
Airport Trondheim Airport, Værnes (ENVA)
Time Latitude Longitude Altitude Speed Heading
2026-04-23 14:33 67.27175 14.36616 47 ft 0 kts 68°
2026-04-23 14:41 67.27174 14.36614 47 ft 1 kts 68°
2026-04-23 14:41 67.27171 14.36589 46 ft 7 kts 81°
2026-04-23 14:41 67.27170 14.36548 46 ft 1 kts 115°
2026-04-23 14:41 67.27173 14.36534 46 ft 0 kts 124°
2026-04-23 14:49 67.27168 14.36541 46 ft 3 kts 148°
2026-04-23 14:49 67.27123 14.36579 46 ft 10 kts 153°
2026-04-23 14:50 67.27078 14.36776 46 ft 17 kts 93°
2026-04-23 14:50 67.27094 14.37102 51 ft 19 kts 79°
2026-04-23 14:50 67.27124 14.37457 52 ft 21 kts 77°
2026-04-23 14:50 67.27156 14.37844 56 ft 23 kts 78°
2026-04-23 14:51 67.27160 14.38194 53 ft 18 kts 90°
2026-04-23 14:51 67.27077 14.38392 52 ft 19 kts 167°
2026-04-23 14:51 67.26966 14.38468 50 ft 10 kts 143°
2026-04-23 14:51 67.26968 14.38657 50 ft 14 kts 78°
2026-04-23 14:52 67.26994 14.38972 49 ft 22 kts 78°
2026-04-23 14:52 67.27031 14.39410 48 ft 28 kts 78°
2026-04-23 14:52 67.27049 14.39629 54 ft 8 kts 77°
2026-04-23 14:52 67.27105 14.39747 50 ft 17 kts 350°
2026-04-23 14:53 67.27176 14.39584 51 ft 17 kts 258°
2026-04-23 14:53 67.27168 14.39498 49 ft 0 kts 257°
2026-04-23 14:53 67.27168 14.39497 51 ft 3 kts 257°
2026-04-23 14:54 67.27113 14.38820 48 ft 72 kts 258°
2026-04-23 14:54 67.26969 14.37106 42 ft 124 kts 257°
2026-04-23 14:54 67.26758 14.34640 262 ft 150 kts 259°
2026-04-23 14:54 67.26511 14.31905 823 ft 163 kts 259°
2026-04-23 14:55 67.26302 14.28974 1449 ft 166 kts 264°
2026-04-23 14:55 67.26132 14.25937 2067 ft 174 kts 266°
2026-04-23 14:55 67.25959 14.22617 2624 ft 198 kts 264°
2026-04-23 14:55 67.25349 14.19223 3247 ft 225 kts 231°
2026-04-23 14:56 67.23995 14.16764 3850 ft 252 kts 210°
2026-04-23 14:56 67.22346 14.14802 4444 ft 264 kts 208°
2026-04-23 14:56 67.20698 14.12682 5030 ft 267 kts 212°
2026-04-23 14:56 67.19104 14.10271 5588 ft 271 kts 216°
2026-04-23 14:57 67.17519 14.07578 6187 ft 275 kts 219°
2026-04-23 14:57 67.15940 14.04732 6744 ft 279 kts 220°
2026-04-23 14:57 67.14352 14.01808 7298 ft 282 kts 221°
2026-04-23 14:57 67.12752 13.98852 7859 ft 286 kts 221°
2026-04-23 14:58 67.11056 13.96100 8434 ft 293 kts 212°
2026-04-23 14:58 67.09118 13.94150 8870 ft 304 kts 201°
2026-04-23 14:58 67.07067 13.92747 8990 ft 305 kts 200°
2026-04-23 14:58 67.05013 13.91360 9010 ft 304 kts 200°
2026-04-23 14:59 67.02991 13.89984 9010 ft 304 kts 200°
2026-04-23 14:59 67.00920 13.88561 9011 ft 304 kts 200°
2026-04-23 14:59 66.98903 13.87166 9011 ft 305 kts 200°
2026-04-23 14:59 66.96861 13.85753 9001 ft 303 kts 200°
2026-04-23 15:00 66.94836 13.84370 9034 ft 307 kts 200°
2026-04-23 15:00 66.92780 13.82942 9015 ft 306 kts 201°
2026-04-23 15:00 66.90721 13.81505 9032 ft 304 kts 202°
2026-04-23 15:00 66.88730 13.79648 9165 ft 307 kts 209°
2026-04-23 15:01 66.86756 13.77505 9846 ft 310 kts 209°
2026-04-23 15:01 66.84737 13.75402 10618 ft 322 kts 209°
2026-04-23 15:01 66.82586 13.73177 10926 ft 346 kts 209°
2026-04-23 15:01 66.80285 13.70798 11332 ft 365 kts 208°
2026-04-23 15:02 66.78713 13.69202 11811 ft 370 kts 208°
2026-04-23 15:02 66.75490 13.65939 12840 ft 378 kts 209°
2026-04-23 15:02 66.73030 13.63398 13664 ft 384 kts 210°
2026-04-23 15:02 66.70481 13.61133 14358 ft 398 kts 198°
2026-04-23 15:03 66.67664 13.60748 15060 ft 415 kts 178°
2026-04-23 15:03 66.64824 13.62572 15719 ft 428 kts 158°
2026-04-23 15:03 66.62289 13.66438 16337 ft 435 kts 138°
2026-04-23 15:03 66.60176 13.71855 16977 ft 436 kts 131°
2026-04-23 15:04 66.57791 13.76670 17630 ft 445 kts 149°
2026-04-23 15:04 66.54957 13.79761 18285 ft 446 kts 167°
2026-04-23 15:04 66.51908 13.80889 18834 ft 441 kts 185°
2026-04-23 15:04 66.48907 13.79969 19469 ft 429 kts 203°
2026-04-23 15:05 66.46177 13.77256 20056 ft 419 kts 217°
2026-04-23 15:05 66.43619 13.73756 20651 ft 420 kts 218°
2026-04-23 15:05 66.41014 13.70332 21216 ft 426 kts 215°
2026-04-23 15:05 66.38300 13.67172 21836 ft 432 kts 212°
2026-04-23 15:06 66.35507 13.64234 22445 ft 438 kts 211°
2026-04-23 15:06 66.32658 13.61414 23024 ft 443 kts 210°
2026-04-23 15:06 66.29802 13.58669 23559 ft 446 kts 209°
2026-04-23 15:06 66.26890 13.55890 24008 ft 451 kts 209°
2026-04-23 15:07 66.23954 13.53098 24533 ft 452 kts 209°
2026-04-23 15:07 66.21009 13.50296 25050 ft 454 kts 209°
2026-04-23 15:07 66.18061 13.47492 25582 ft 454 kts 209°
2026-04-23 15:07 66.15088 13.44669 25946 ft 461 kts 209°
2026-04-23 15:08 66.12085 13.41826 26407 ft 463 kts 209°
2026-04-23 15:08 66.09071 13.38981 26901 ft 465 kts 208°
2026-04-23 15:08 66.06046 13.36129 27327 ft 467 kts 208°
2026-04-23 15:09 65.99921 13.30385 28150 ft 473 kts 208°
2026-04-23 15:09 65.96843 13.27509 28598 ft 473 kts 207°
2026-04-23 15:09 65.93758 13.24634 28990 ft 476 kts 207°
2026-04-23 15:09 65.90652 13.21748 29354 ft 479 kts 207°
2026-04-23 15:10 65.88587 13.19833 29584 ft 480 kts 207°
2026-04-23 15:10 65.84396 13.15956 30071 ft 483 kts 207°
2026-04-23 15:10 65.81285 13.13088 30379 ft 485 kts 207°
2026-04-23 15:10 65.78115 13.10174 30707 ft 487 kts 207°
2026-04-23 15:11 65.74935 13.07255 31034 ft 489 kts 207°
2026-04-23 15:11 65.71745 13.04336 31395 ft 490 kts 207°
2026-04-23 15:11 65.68546 13.01418 31791 ft 489 kts 207°
2026-04-23 15:11 65.65370 12.98528 32022 ft 487 kts 207°
2026-04-23 15:12 65.62196 12.95648 32073 ft 485 kts 207°
2026-04-23 15:12 65.55871 12.89927 32077 ft 485 kts 207°
2026-04-23 15:13 65.49575 12.84262 32099 ft 485 kts 207°
2026-04-23 15:13 65.43241 12.78593 32101 ft 485 kts 207°
2026-04-23 15:14 65.36915 12.72956 32101 ft 484 kts 206°
2026-04-23 15:14 65.30575 12.67336 32107 ft 485 kts 206°
2026-04-23 15:15 65.24288 12.61797 32108 ft 484 kts 206°
2026-04-23 15:15 65.17956 12.56246 32115 ft 484 kts 206°
2026-04-23 15:16 65.11634 12.50733 32106 ft 483 kts 206°
2026-04-23 15:16 65.05312 12.45241 32114 ft 482 kts 205°
2026-04-23 15:17 64.99002 12.39793 32110 ft 484 kts 205°
2026-04-23 15:17 64.95879 12.37107 31945 ft 483 kts 205°
2026-04-23 15:17 64.92721 12.34398 31691 ft 483 kts 205°
2026-04-23 15:17 64.89570 12.31699 31400 ft 480 kts 204°
2026-04-23 15:18 64.86440 12.29029 31147 ft 477 kts 204°
2026-04-23 15:18 64.83303 12.26355 30907 ft 480 kts 204°
2026-04-23 15:18 64.80163 12.23684 30660 ft 480 kts 204°
2026-04-23 15:18 64.77023 12.21023 30387 ft 477 kts 204°
2026-04-23 15:19 64.73916 12.18397 30144 ft 474 kts 204°
2026-04-23 15:19 64.70814 12.15782 29861 ft 473 kts 204°
2026-04-23 15:19 64.67725 12.13183 29584 ft 471 kts 204°
2026-04-23 15:19 64.64854 12.10774 29338 ft 469 kts 204°
2026-04-23 15:20 64.62825 12.09074 29148 ft 468 kts 204°
2026-04-23 15:20 64.58768 12.05685 28792 ft 465 kts 204°
2026-04-23 15:20 64.55721 12.03146 28523 ft 463 kts 204°
2026-04-23 15:20 64.52687 12.00624 28254 ft 461 kts 204°
2026-04-23 15:21 64.49674 11.98124 27983 ft 460 kts 204°
2026-04-23 15:21 64.46665 11.95634 27711 ft 457 kts 204°
2026-04-23 15:21 64.43680 11.93169 27377 ft 455 kts 204°
2026-04-23 15:21 64.40690 11.90705 26758 ft 456 kts 204°
2026-04-23 15:22 64.37716 11.88261 26187 ft 452 kts 204°
2026-04-23 15:22 64.34761 11.85840 25609 ft 448 kts 204°
2026-04-23 15:22 64.31832 11.83445 25029 ft 445 kts 204°
2026-04-23 15:22 64.28918 11.81067 24436 ft 442 kts 204°
2026-04-23 15:23 64.26025 11.78713 23835 ft 440 kts 204°
2026-04-23 15:23 64.24119 11.77165 23410 ft 438 kts 204°
2026-04-23 15:23 64.21265 11.74848 22849 ft 432 kts 204°
2026-04-23 15:23 64.17528 11.71822 22063 ft 427 kts 204°
2026-04-23 15:24 64.14741 11.69567 21478 ft 424 kts 204°
2026-04-23 15:24 64.12861 11.68048 21094 ft 421 kts 204°
2026-04-23 15:24 64.10164 11.65760 20528 ft 417 kts 206°
2026-04-23 15:24 64.07467 11.63335 19949 ft 414 kts 206°
2026-04-23 15:25 64.04794 11.60908 19375 ft 412 kts 206°
2026-04-23 15:25 64.02125 11.58498 18797 ft 411 kts 206°
2026-04-23 15:25 63.99464 11.56118 18176 ft 410 kts 206°
2026-04-23 15:25 63.96816 11.53768 17611 ft 406 kts 206°
2026-04-23 15:26 63.94192 11.51452 17037 ft 403 kts 206°
2026-04-23 15:26 63.91585 11.49156 16471 ft 401 kts 205°
2026-04-23 15:26 63.88996 11.46879 15911 ft 398 kts 205°
2026-04-23 15:26 63.86429 11.44628 15566 ft 389 kts 205°
2026-04-23 15:27 63.83975 11.42486 15424 ft 376 kts 205°
2026-04-23 15:27 63.81586 11.40412 15251 ft 359 kts 205°
2026-04-23 15:27 63.79310 11.38436 15068 ft 341 kts 206°
2026-04-23 15:27 63.77116 11.36777 14905 ft 327 kts 193°
2026-04-23 15:28 63.74879 11.36781 14635 ft 320 kts 168°
2026-04-23 15:28 63.72771 11.38294 14142 ft 317 kts 160°
2026-04-23 15:28 63.70748 11.40081 13961 ft 306 kts 149°
2026-04-23 15:28 63.69182 11.43038 13835 ft 285 kts 120°
2026-04-23 15:29 63.68373 11.47095 13662 ft 288 kts 92°
2026-04-23 15:29 63.68381 11.51516 13603 ft 278 kts 73°
2026-04-23 15:29 63.68729 11.55775 13410 ft 278 kts 74°
2026-04-23 15:29 63.68753 11.60216 13030 ft 290 kts 91°
2026-04-23 15:30 63.68265 11.64665 12671 ft 293 kts 100°
2026-04-23 15:30 63.67674 11.69044 12173 ft 292 kts 100°
2026-04-23 15:30 63.66900 11.73311 11642 ft 298 kts 115°
2026-04-23 15:30 63.65579 11.77100 11420 ft 326 kts 130°
2026-04-23 15:31 63.64040 11.80742 11326 ft 321 kts 129°
2026-04-23 15:31 63.62471 11.84225 11226 ft 312 kts 139°
2026-04-23 15:31 63.60639 11.86726 11046 ft 306 kts 156°
2026-04-23 15:31 63.58627 11.88255 10707 ft 304 kts 173°
2026-04-23 15:32 63.56559 11.88036 10351 ft 295 kts 201°
2026-04-23 15:32 63.54800 11.85956 9969 ft 279 kts 230°
2026-04-23 15:32 63.53728 11.82584 9613 ft 256 kts 259°
2026-04-23 15:32 63.53490 11.78830 9279 ft 237 kts 280°
2026-04-23 15:33 63.53618 11.75193 8930 ft 233 kts 282°
2026-04-23 15:33 63.53689 11.71576 8584 ft 232 kts 277°
2026-04-23 15:33 63.53617 11.67964 8219 ft 230 kts 272°
2026-04-23 15:33 63.53439 11.64410 7732 ft 228 kts 269°
2026-04-23 15:34 63.53201 11.60917 7278 ft 225 kts 267°
2026-04-23 15:34 63.52902 11.57543 6852 ft 222 kts 258°
2026-04-23 15:34 63.52073 11.54584 6316 ft 236 kts 229°
2026-04-23 15:34 63.50637 11.52886 6179 ft 232 kts 208°
2026-04-23 15:35 63.49157 11.51674 6067 ft 220 kts 210°
2026-04-23 15:35 63.47767 11.50529 5876 ft 205 kts 210°
2026-04-23 15:35 63.46532 11.49389 5789 ft 177 kts 223°
2026-04-23 15:35 63.45784 11.47604 5657 ft 143 kts 253°
2026-04-23 15:36 63.45574 11.45667 5613 ft 118 kts 276°
2026-04-23 15:36 63.45593 11.43885 5400 ft 114 kts 276°
2026-04-23 15:36 63.45633 11.42140 5133 ft 111 kts 278°
2026-04-23 15:36 63.45661 11.40428 4896 ft 109 kts 275°
2026-04-23 15:37 63.45666 11.38702 4708 ft 111 kts 275°
2026-04-23 15:37 63.45670 11.36973 4513 ft 110 kts 275°
2026-04-23 15:37 63.45673 11.35249 4333 ft 110 kts 275°
2026-04-23 15:37 63.45677 11.33571 4155 ft 109 kts 275°
2026-04-23 15:38 63.45680 11.31868 3970 ft 109 kts 275°
2026-04-23 15:38 63.45684 11.30152 3806 ft 110 kts 274°
2026-04-23 15:38 63.45687 11.28453 3622 ft 108 kts 275°
2026-04-23 15:38 63.45687 11.26784 3454 ft 108 kts 274°
2026-04-23 15:39 63.45694 11.25061 3284 ft 110 kts 275°
2026-04-23 15:39 63.45699 11.23376 3130 ft 112 kts 275°
2026-04-23 15:39 63.45702 11.21671 2933 ft 105 kts 274°
2026-04-23 15:39 63.45705 11.19903 2784 ft 115 kts 274°
2026-04-23 15:40 63.45705 11.18217 2590 ft 108 kts 274°
2026-04-23 15:40 63.45717 11.16506 2500 ft 117 kts 273°
2026-04-23 15:40 63.45713 11.14760 2264 ft 111 kts 273°
2026-04-23 15:40 63.45720 11.13036 2083 ft 109 kts 273°
2026-04-23 15:41 63.45722 11.11351 1915 ft 111 kts 273°
2026-04-23 15:41 63.45724 11.09583 1712 ft 111 kts 272°
2026-04-23 15:41 63.45728 11.07857 1520 ft 112 kts 272°
2026-04-23 15:41 63.45731 11.06138 1331 ft 109 kts 272°
2026-04-23 15:42 63.45734 11.04427 1142 ft 110 kts 270°
2026-04-23 15:42 63.45738 11.02716 969 ft 111 kts 271°
2026-04-23 15:42 63.45741 11.00985 794 ft 111 kts 271°
2026-04-23 15:42 63.45745 10.99295 633 ft 106 kts 271°
2026-04-23 15:43 63.45748 10.97626 467 ft 108 kts 271°
2026-04-23 15:43 63.45744 10.95935 320 ft 110 kts 272°
2026-04-23 15:43 63.45748 10.94257 109 ft 106 kts 275°
2026-04-23 15:43 63.45762 10.92623 54 ft 92 kts 271°
2026-04-23 15:44 63.45765 10.91730 47 ft 21 kts 266°
2026-04-23 15:44 63.45772 10.91544 47 ft 10 kts 270°
2026-04-23 15:44 63.45761 10.91294 44 ft 24 kts 270°
2026-04-23 15:44 63.45763 10.90840 39 ft 33 kts 270°
2026-04-23 15:45 63.45701 10.90422 36 ft 24 kts 224°
2026-04-23 15:45 63.45598 10.90452 37 ft 10 kts 105°
2026-04-23 15:45 63.45599 10.90634 38 ft 14 kts 90°
2026-04-23 15:45 63.45598 10.90894 40 ft 20 kts 90°
2026-04-23 15:46 63.45597 10.91238 43 ft 21 kts 90°
2026-04-23 15:46 63.45597 10.91480 45 ft 13 kts 90°
2026-04-23 15:46 63.45577 10.91646 47 ft 10 kts 152°
2026-04-23 15:46 63.45512 10.91660 47 ft 7 kts 180°
2026-04-23 15:47 63.45505 10.91659 47 ft 0 kts 181°
2026-04-23 15:47 63.45499 10.91659 47 ft 3 kts 182°
2026-04-23 15:47 63.45497 10.91659 47 ft 0 kts 182°